www.pogodaiklimat.ru

Погода и климат >> Архив погоды >> Россия >> Ростовская область >> Боковская


ПОГОДА в Боковской

  • Прогноз погоды в Боковской
  • Монитор погоды в Боковской

АРХИВ ПОГОДЫ в Боковской

Время (UTC), дата Ветер
(напр.,м/с)
 
Видим.   Явления Облачность Т
(С)
Тd
(С)
f
(%)
Тe
(С)
Тes
(С)
Комфортность P
(гПа)
Po
(гПа)
Тmin
(С)
Tmax
(С)
R
(мм)
R24
(мм)
S
(см)
06 16.08 ЮВ 3 20 км 9/0
[Ci sp]
+25.2 +9.6 37 +26 +31 жарко 1010.7 1000.2
09 16.08 ЮВ 5-10
{10}
20 км 8/0
[Ci sp]
+30.6 +7.0 23 +29 +36 жарко 1009.1 998.7
12 16.08 ЮВ 4
{11}
20 км пыльный позёмок 9/3 1000 м
[Cb cap Ac As]
+29.9 +6.4 23 +29 +30 жарко 1008.3 997.9
15 16.08 ЮВ 2 20 км {метель} 10/3 1000 м
[Cb cap Ac As]
+29.5 +9.3 28 +29 +29 жарко 1007.7 997.3 +30.8
18 16.08 ЮВ 1 20 км {метель} 10/0
[Ac As]
+24.6 +11.6 44 +26 +26 жарко 1007.4 996.9
21 16.08 З 1 20 км 9/0
[Ac As]
+21.1 +15.1 69 +24 +24 комфорт 1007.8 997.2
00 17.08 ЮВ 2 н/о н/о +22.4 +13.5 57 +25 +25 комфорт 1008.2 997.6
03 17.08 ЮВ 2 20 км 10/3 600 м
[Cb cap Ac As]
+21.5 +10.9 51 +23 +23 комфорт 1008.5 997.9 +20.3
06 17.08 ЮВ 2 20 км 9/1 600 м
[Cb cap Ac As Ci fib]
+24.7 +12.0 45 +26 +30 жарко 1008.6 998.1
09 17.08 ЮВ 2 20 км 10/3 600 м
[Cb cap Ac As]
+26.4 +9.0 33 +27 +30 жарко 1008.2 997.7
12 17.08 Ю 2 20 км 9/1 600 м
[Cb cap Ac As]
+27.8 +11.4 36 +29 +32 жарко 1008.0 997.6
15 17.08 ЮЗ 3 20 км 3/0
[Ac As Ci fib]
+28.3 +12.3 37 +29 +30 жарко 1007.6 997.2 +29.8
18 17.08 СЗ 1 20 км ясно +21.0 +14.3 66 +25 +25 комфорт 1008.9 998.2
21 17.08 штиль 0 20 км ясно +16.9 +14.8 87 +17 +17 1009.8 999.0
00 18.08 З 1 20 км ясно +14.8 +13.5 92 +15 +15 1010.5 999.6
03 18.08 штиль 0 20 км 6/0
[Ci fib]
+14.9 +13.9 94 +15 +15 1010.9 1000.0 +14.2
06 18.08 В 1 20 км 3/0
[Ci fib]
+25.8 +17.5 60 +30 +38 душно 1010.7 1000.2
09 18.08 В 1 20 км 10/1 600 м
[Cb cap Ac As]
+29.1 +16.7 47 +33 +37 очень
душно
1010.2 999.8
12 18.08 Ю 3 20 км 10/6 600 м
[Cb cap Ac As]
+26.5 +17.4 57 +31 +31 душно 1010.8 1000.4
15 18.08 штиль 0 20 км 8/3 600 м
[Cb cap Ac As]
+24.6 +21.2 81 +31 +31 очень
душно
1011.3 1000.8 +30.5
18 18.08 С 1 20 км 4/0
[Ac As Ci fib]
+20.2 +18.5 90 +25 +25 комфорт 1012.4 1001.7
21 18.08 З 1 20 км ясно +19.9 +18.3 90 +24 +24 комфорт 1012.8 1002.1
00 19.08 З 1 4000 м дымка 3/0
[Ci fib]
+17.7 +16.9 95 +19 +19 1013.2 1002.4
03 19.08 СЗ 1 4000 м дымка 5/0
[Ac trans]
+17.5 +16.8 96 +19 +19 1014.4 1003.6 +17.2
06 19.08 СЗ 1 20 км 3/0
[Ci fib]
+24.4 +18.3 69 +29 +37 душно 1014.8 1004.3
09 19.08 СВ 1 20 км 8/0
[Ac As Ci sp]
+28.9 +15.9 45 +32 +41 душно 1015.6 1005.2
12 19.08 С 2 20 км гроза без осадков 8/4 600 м
[Cb cap Ac As]
+29.6 +16.9 46 +33 +36 душно 1015.1 1004.7
15 19.08 СЗ 2 20 км {гроза} 8/0
[Ac trans]
+27.3 +16.3 51 +31 +31 душно 1015.9 1005.4 +31.1
18 19.08 З 3 20 км {гроза} 1/0
[Ac lent]
+22.5 +18.6 79 +28 +28 душно 1017.2 1006.5
21 19.08 СЗ 2 20 км ясно +20.0 +18.6 92 +24 +24 комфорт 1017.6 1006.8
00 20.08 З 2 20 км ясно +18.5 +17.1 92 +20 +20 1017.5 1006.7
03 20.08 СЗ 2 4000 м дымка ясно +17.6 +16.4 93 +18 +18 1018.1 1007.3 +17.4
06 20.08 СЗ 4 20 км ясно +23.9 +18.1 70 +28 +33 душно 1018.6 1008.0
09 20.08 С 4 20 км ясно +31.0 +16.0 40 +34 +43 душно 1018.2 1007.8
12 20.08 СВ 4 20 км ясно +33.1 +14.0 32 +34 +40 очень
жарко
1017.4 1007.1
15 20.08 С 4 20 км ясно +29.9 +15.6 42 +33 +33 душно 1018.1 1007.7 +33.2
18 20.08 З 2 20 км ясно +23.1 +15.6 63 +27 +27 душно 1019.6 1008.9
21 20.08 З 2 20 км ясно +20.7 +15.8 74 +25 +25 комфорт 1019.8 1009.0
00 21.08 З 2 20 км ясно +18.8 +15.9 83 +20 +20 1020.1 1009.3
03 21.08 З 1 20 км ясно +17.9 +15.7 87 +19 +19 1020.6 1009.7 +17.8
06 21.08 С 4 20 км ясно +25.4 +15.9 56 +29 +34 душно 1020.1 1009.5
09 21.08 СВ 4 20 км ясно +31.1 +12.3 32 +32 +41 жарко 1018.7 1008.3
12 21.08 СВ 4 20 км ясно +33.2 +9.9 24 +32 +38 жарко 1017.5 1007.1
15 21.08 СВ 4 20 км ясно +31.3 +12.7 32 +32 +33 жарко 1017.0 1006.6 +33.2
18 21.08 СВ 4 20 км ясно +25.8 +15.0 51 +29 +29 душно 1017.5 1006.9
21 21.08 СВ 1 20 км 3/0
[Ci fib]
+23.2 +14.9 60 +27 +27 душно 1018.1 1007.4
00 22.08 СВ 1 20 км 1/0
[Ci fib]
+20.2 +14.4 69 +24 +24 комфорт 1018.2 1007.4
03 22.08 З 1 20 км ясно +17.6 +14.3 81 +19 +19 1018.8 1008.0 +16.8
06 22.08 В 2 20 км ясно +26.9 +15.0 48 +30 +37 душно 1018.4 1007.9
09 22.08 СВ 4 20 км ясно +31.9 +13.6 33 +33 +42 жарко 1017.3 1007.0
12 22.08 СВ 3
{11}
20 км пыльный позёмок 1/0
[Ci fib]
+33.5 +13.7 30 +34 +41 очень
жарко
1016.4 1006.1
15 22.08 СВ 3 20 км пыльный позёмок 1/1 1000 м
[Cu hum]
+32.3 +12.5 30 +33 +33 жарко 1016.0 1005.7 +34.2
18 22.08 С 3 20 км {метель} ясно +26.3 +14.5 48 +29 +29 жарко 1017.5 1007.0
21 22.08 З 1 20 км ясно +21.7 +15.0 66 +25 +25 комфорт 1018.2 1007.4
00 23.08 СЗ 1 20 км ясно +17.9 +14.6 81 +19 +19 1018.4 1007.5
03 23.08 З 1 20 км 9/0
[Ac lent Ci fib]
+17.0 +14.4 85 +18 +18 1018.9 1008.0 +16.4

 

Местоположение метеостанции Боковская (Ростовская область, Россия): широта 49.22 долгота 41.83 высота над уровнем моря 91 м.

В архиве по умолчанию представлена погода в Боковской за последнюю неделю. Архивные данные за месяц целиком и за предыдущие месяцы, начиная с января 2011 года, Вы можете получить, выбрав интересующий диапазон дат из раскрывающегося списка и нажав кнопку "Ввод!".


*Определитесь, кто Вы:
робот инопланетянин человек

Внимание! Время в таблицах - всемирное. Для получения местного времени необходимо прибавить поправку, которая равна 3 ч.

Смотрите также архив погоды в соседних городах и на ближайших метеорологических станциях:

Погода в Серафимовиче (Волгоградская область, Россия) (76 км)
Погода в Казанской (Ростовская область, Россия) (81 км)
Погода в Морозовске (Ростовская область, Россия) (97 км)
Погода в Миллерово (Ростовская область, Россия) (110 км)
Погода в Богучаре (Воронежская область, Россия) (120 км)
Погода в Чертково (Ростовская область, Россия) (122 км)
Погода в Белой Калитве (Ростовская область, Россия) (133 км)
Погода в Калаче-на-Дону (Волгоградская область, Россия) (135 км)
Погода в Нижнем Чире (Волгоградская область, Россия) (137 км)
Погода в Михайловке (Волгоградская область, Россия) (141 км)

Пояснения к столбцам:

Ветер - указаны скорость ветра в м/с - средняя за 10 мин, порывы в срок и между сроками (в фигурных скобках) и направление, откуда дует ветер: С - северный, СВ - северо-восточный, В - восточный, ЮВ - юго-восточный, Ю - южный, ЮЗ - юго-западный, З - западный, СЗ - северо-западный.
Видимость - горизонтальная дальность видимости в метрах или километрах. При видимости от 1 до 10 км при отсутствии осадков обычно наблюдается дымка, при ухудшении видимости до 1 км и менее - туман. В сухую погоду видимость может ухудшаться дымом, пылью или мглою.
Явления - указаны атмосферные явления, наблюдавшиеся в срок или в последний час перед сроком; фигурными скобками обозначены явления, наблюдавшиеся между сроками (за 1-3 часа до срока); квадратными скобками обозначены град или гололедные отложения с указанием их диаметра в мм.
Облачность - указаны через наклонную черту общая и нижняя облачность в баллах и высота нижней границы облаков в метрах; квадратными скобками обозначены формы облаков: Ci - перистые, Cs - перисто-слоистые, Cc - перисто-кучевые, Ac - высококучевые, As - высокослоистые, Sc - слоисто-кучевые, Ns - слоисто-дождевые, Cu - кучевые, Cb - кучево-дождевые. Подробнее классификацию облаков см. в Атласе облаков (PDF).
T - Температура воздуха - температура, измеренная на высоте 2 м над землей.
Td - Температура точки росы - температура, при понижении до которой содержащийся в воздухе водяной пар достигнет насыщения.
f - Относительная влажность воздуха - влажноcть воздуха, измеренная на высоте 2 м над землей.
Te - Эффективная температура - температура, которую ощущает одетый по сезону человек в тени. Характеристика душности погоды. При расчете учитывается влияние влажности воздуха и скорости ветра на теплоощущения человека.
Tes - Эффективная температура на солнце - температура, которую ощущает человек, с поправкой на солнечный нагрев. Характеристика знойности погоды. Зависит от высоты солнца над горизонтом, облачности и скорости ветра. Ночью, в пасмурную погоду, а также при ветре 12 м/с и более поправка равна нулю.
P - Атмосферное давление - приведенное к уровню моря атмосферное давление.
Po - Атмосферное давление - измеренное на уровне метеостанции атмосферное давление.
Tmin - Минимальная температура - минимум температуры воздуха на высоте 2 м над землей.
Tmax - Максимальная температура - максимум температуры воздуха на высоте 2 м над землей.
R - Количество осадков - Количество выпавших осадков за период времени, мм. При наведении курсора мыши на число - период времени, за который выпало указанное количество осадков.
R24 - Количество осадков - Количество выпавших осадков за 24 часа, мм.
S - Снежный покров - Высота снежного покрова, см. При наведении курсора мыши на число - состояние снежного покрова и степень покрытия местности в баллах.